Weather History for LKPR - January, 2013

Change the Weather History Date:

Wednesday, January 23, 2013

  Actual Average Record
Temperature  
Mean Temperature 20 °F -  
Max Temperature 22 °F 36 °F - (-1)
Min Temperature 18 °F 24 °F - (-1)
Degree Days  
Heating Degree Days 45    
Moisture  
Dew Point 17 °F    
Average Humidity 86    
Maximum Humidity 93    
Minimum Humidity 73    
Precipitation  
Precipitation 0.00 in 0.03 in - ()
Sea Level Pressure  
Sea Level Pressure 29.74 in    
Wind  
Wind Speed 4 mph ()    
Max Wind Speed 7 mph    
Max Gust Speed -    
Visibility 2.8 miles    
Events Snow    
Averages and records for this station are not official NWS values.
T = Trace of Precipitation, MM = Missing Value Source: Averaged Metar Reports

Daily Weather History Graph

Daily Weather History Graph

Search for Another Location

Airport or City:

Trip Planner

Search our weather history database for the weather conditions in past years. The results will help you decide how hot, cold, wet, or windy it might be!

Date:

Astronomy

Jan. 23, 2013 Rise Set
Actual Time 7:48 AM CET 4:41 PM CET
Civil Twilight 7:12 AM CET 5:17 PM CET
Nautical Twilight 6:32 AM CET 5:57 PM CET
Astronomical Twilight 5:54 AM CET 6:36 PM CET
Moon 1:33 PM CET (1/23) 4:50 AM CET (1/23)
Length of Visible Light 10h 05m
Length of Day
8h 53m
Waxing Gibbous, 87% of the Moon is Illuminated
Jan 23
Waxing Gibbous
Jan 27
Full
Feb 3
Last Quarter
Feb 10
New
Feb 17
First Quarter

Hourly Weather History & Observations

Time (CET) Temp. Windchill Dew Point Humidity Pressure Visibility Wind Dir Wind Speed Gust Speed Precip Events Conditions
12:00 AM 19.4 °F 14.3 °F 15.8 °F 86% 29.71 in 3.1 mi NNE 3.5 mph - N/A   Overcast
12:30 AM 19.4 °F 14.3 °F 15.8 °F 86% 29.71 in 3.1 mi NE 3.5 mph - N/A   Overcast
1:00 AM 19 °F - 15 °F 77% 29.83 in 3 mi ENE 4.5 mph - -   Mist
1:00 AM 19.4 °F 14.3 °F 15.8 °F 86% 29.71 in 3.1 mi NE 3.5 mph - N/A   Overcast
1:30 AM 19.4 °F 14.3 °F 15.8 °F 86% 29.71 in 3.1 mi NE 3.5 mph - N/A   Overcast
2:00 AM 19.4 °F 14.3 °F 15.8 °F 86% 29.71 in 3.1 mi NE 3.5 mph - N/A   Overcast
2:30 AM 17.6 °F 12.3 °F 15.8 °F 93% 29.71 in 3.1 mi NE 3.5 mph - N/A   Overcast
2:44 AM 17.6 °F 12.3 °F 15.8 °F 93% 29.71 in 3.1 mi ENE 3.5 mph - N/A   Overcast
3:00 AM 17.6 °F 12.3 °F 15.8 °F 93% 29.71 in 3.1 mi NE 3.5 mph - N/A   Overcast
3:30 AM 17.6 °F 12.3 °F 15.8 °F 93% 29.71 in 3.1 mi ENE 3.5 mph - N/A   Overcast
4:00 AM 17.6 °F 12.3 °F 15.8 °F 93% 29.71 in 3.1 mi East 3.5 mph - N/A   Overcast
4:30 AM 17.6 °F 12.3 °F 15.8 °F 93% 29.71 in 3.1 mi ENE 3.5 mph - N/A   Overcast
5:00 AM 17.6 °F 10.7 °F 15.8 °F 93% 29.71 in 3.1 mi NE 4.6 mph - N/A   Overcast
5:30 AM 17.6 °F 10.7 °F 15.8 °F 93% 29.71 in 3.1 mi ENE 4.6 mph - N/A   Overcast
6:00 AM 19.4 °F 12.8 °F 15.8 °F 86% 29.71 in 3.1 mi ENE 4.6 mph - N/A   Overcast
6:30 AM 19.4 °F 12.8 °F 15.8 °F 86% 29.71 in 3.1 mi NE 4.6 mph - N/A   Overcast
7:00 AM 19 °F - 15 °F 79% 29.84 in 3 mi East 4.5 mph - -   Mist
7:00 AM 19.4 °F - 15.8 °F 86% 29.74 in 3.1 mi NE 2.3 mph - N/A   Overcast
7:30 AM 19.4 °F - 15.8 °F 86% 29.74 in - Variable 2.3 mph - N/A   Overcast
8:00 AM 19.4 °F - 15.8 °F 86% 29.74 in 2.2 mi ENE 2.3 mph - N/A   Overcast
8:30 AM 19.4 °F - 15.8 °F 86% 29.74 in - Variable 1.2 mph - N/A   Overcast
9:00 AM 19.4 °F - 15.8 °F 86% 29.74 in - Variable 2.3 mph - N/A   Overcast
9:30 AM 19.4 °F - 15.8 °F 86% 29.74 in 2.2 mi Variable 2.3 mph - N/A   Overcast
10:00 AM 19.4 °F 14.3 °F 15.8 °F 86% 29.74 in - NE 3.5 mph - N/A   Overcast
10:30 AM 19.4 °F - 15.8 °F 86% 29.74 in 2.5 mi Variable 2.3 mph - N/A   Overcast
11:00 AM 21.2 °F 14.9 °F 15.8 °F 80% 29.74 in - NE 4.6 mph - N/A   Overcast
11:30 AM 21.2 °F 14.9 °F 17.6 °F 86% 29.74 in 2.5 mi East 4.6 mph - N/A   Overcast
12:00 PM 21.2 °F 14.9 °F 17.6 °F 86% 29.74 in 2.5 mi NE 4.6 mph - N/A Snow Light Snow
12:30 PM 21.2 °F 14.9 °F 17.6 °F 86% 29.74 in 2.8 mi ENE 4.6 mph - N/A   Overcast
1:00 PM 22 °F - 17 °F 73% 29.84 in 2 mi East 4.5 mph - - Snow Light Snow
1:00 PM 21.2 °F 14.9 °F 17.6 °F 86% 29.74 in 2.5 mi East 4.6 mph - N/A Snow Light Snow
1:30 PM 23.0 °F 17.0 °F 17.6 °F 80% 29.74 in - ENE 4.6 mph - N/A   Overcast
2:00 PM 23.0 °F 15.8 °F 17.6 °F 80% 29.74 in 2.5 mi ENE 5.8 mph - N/A   Overcast
2:30 PM 23.0 °F 18.4 °F 17.6 °F 80% 29.74 in - NE 3.5 mph - N/A   Overcast
3:00 PM 23.0 °F 17.0 °F 17.6 °F 80% 29.74 in 3.1 mi NE 4.6 mph - N/A   Overcast
3:30 PM 21.2 °F 14.9 °F 17.6 °F 86% 29.74 in 3.1 mi NE 4.6 mph - N/A   Overcast
4:00 PM 21.2 °F 16.4 °F 17.6 °F 86% 29.74 in 2.8 mi NE 3.5 mph - N/A   Overcast
4:30 PM 21.2 °F 13.6 °F 17.6 °F 86% 29.74 in 2.2 mi NE 5.8 mph - N/A   Overcast
5:00 PM 21.2 °F 14.9 °F 17.6 °F 86% 29.74 in 2.5 mi NE 4.6 mph - N/A   Overcast
5:30 PM 21.2 °F 12.6 °F 17.6 °F 86% 29.74 in 3.1 mi ENE 6.9 mph - N/A   Overcast
6:00 PM 21.2 °F 14.9 °F 17.6 °F 86% 29.74 in 2.8 mi NNE 4.6 mph - N/A Snow Light Snow
6:31 PM 21.2 °F 16.4 °F 17.6 °F 86% 29.74 in 2.8 mi NE 3.5 mph - N/A Snow Light Snow
7:00 PM 22 °F - 18 °F 78% 29.85 in 3 mi ENE 4.5 mph - - Snow Light Snow
7:00 PM 21.2 °F 16.4 °F 17.6 °F 86% 29.74 in 3.1 mi NE 3.5 mph - N/A   Overcast
7:30 PM 21.2 °F - 17.6 °F 86% 29.74 in 3.1 mi NE 2.3 mph - N/A Snow Light Snow
8:00 PM 21.2 °F 16.4 °F 17.6 °F 86% 29.74 in - NE 3.5 mph - N/A Snow Light Snow
8:30 PM 21.2 °F 14.9 °F 17.6 °F 86% 29.74 in - NNE 4.6 mph - N/A Snow Light Snow
9:00 PM 21.2 °F 16.4 °F 17.6 °F 86% 29.74 in 2.8 mi North 3.5 mph - N/A Snow Light Snow
9:30 PM 21.2 °F 14.9 °F 19.4 °F 93% 29.77 in - North 4.6 mph - N/A Snow Light Snow
10:00 PM 21.2 °F 16.4 °F 19.4 °F 93% 29.77 in 2.8 mi North 3.5 mph - N/A Snow Light Snow
10:30 PM 21.2 °F 14.9 °F 19.4 °F 93% 29.74 in - North 4.6 mph - N/A Snow Light Snow
11:00 PM 21.2 °F 14.9 °F 19.4 °F 93% 29.74 in 2.2 mi North 4.6 mph - N/A Snow Light Snow
11:30 PM 21.2 °F 16.4 °F 19.4 °F 93% 29.77 in 2.8 mi North 3.5 mph - N/A Snow Light Snow